User: anonymous
Location: Stonelick Lake State Park
(39.2170°N, 84.0850°W)
Time: 12:21:54
(UTC-04:00)
Language:

Abrixas rocket - Orbit

View from above orbital plane
View from above orbital plane
View from above satellite
View from above satellite

Ground track
Ground track

The orbit data is extracted from the following two-line orbital elements,

1 25723U 99022C   14265.44114803  .00009152  00000-0  29823-3 0  7569
2 25723 048.4240 020.2268 0017777 317.0912 158.2649 15.32285816852062
Epoch (UTC): 22 September 2014 10:35:15
Eccentricity: 0.0017777
inclination: 48.4240°
perigee height: 457 km
apogee height: 481 km
right ascension of ascending node: 20.2268°
argument of perigee: 317.0912°
revolutions per day: 15.32285816
mean anomaly at epoch: 158.2649°
orbit number at epoch: 85206

The dashed part of the orbit path shows where the satellite is in the earth's shadow,  

DLR